GFSGL_prec_cloud_003.txt.gz
Cloud_Cover
0 0 0 0 0 0 0 5 0 0 0 0 0 0 0 0 0 0 0 0 1 5 57 100 44 100 100 100 100 100 100 100 100 100 100 100 100 100 100 100 100 100 44
0 0 0 0 0 0 0 5 0 0 0 0 0 0 0 0 0 0 0 2 5 9 99 89 25 97 100 100 100 100 100 100 100 100 100 100 100 100 100 100 100 100 100
0 0 0 0 0 0 2 0 0 0 0 0 0 0 0 0 0 0 5 5 5 6 83 59 90 98 100 100 100 100 100 100 100 100 100 100 100 100 100 100 100 100 100
0 0 0 0 0 0 0 4 1 0 0 0 0 0 0 0 0 0 2 5 5 37 77 76 100 98 100 100 100 100 100 100 46 97 100 100 100 100 100 97 100 100 100
0 0 0 0 0 1 5 3 4 0 0 0 0 0 0 0 0 5 5 5 5 5 59 71 100 100 100 100 100 100 100 100 100 100 100 100 100 100 100 99 100 100 100
0 0 3 0 3 5 5 5 0 0 0 0 0 0 0 0 0 5 25 8 5 51 83 53 100 100 100 100 100 100 100 100 100 100 100 100 98 100 100 100 100 100 100
2 5 4 0 5 5 4 5 0 0 0 0 0 0 0 0 3 5 62 87 26 54 51 100 100 100 100 100 100 100 100 100 100 99 100 100 100 100 100 100 100 100 100
5 5 0 5 6 5 5 0 0 0 0 0 0 0 0 5 5 5 51 99 100 21 64 100 100 100 100 100 100 100 100 100 100 93 100 100 100 100 100 100 100 100 100
5 5 2 6 18 3 5 2 0 0 0 0 0 0 4 5 3 5 5 5 8 5 95 100 100 100 100 100 100 100 100 100 100 100 98 100 100 100 100 100 100 100 100
5 5 5 50 5 5 5 5 2 1 0 0 0 0 5 5 5 1 5 23 5 5 8 86 100 100 100 100 100 100 100 100 100 100 100 100 100 100 100 100 100 100 100
5 5 7 24 25 5 5 5 5 0 0 0 0 3 5 5 4 1 7 92 100 84 80 88 100 100 100 100 100 100 100 100 100 100 100 100 100 100 100 100 100 100 100
5 5 5 96 63 67 38 19 0 0 0 0 0 5 5 2 0 5 14 81 100 95 100 25 100 100 100 100 100 100 100 100 100 100 100 100 100 100 100 100 100 100 100
5 17 57 29 74 70 6 5 0 0 0 0 5 5 5 0 4 5 5 100 100 100 87 37 100 100 100 100 100 100 100 100 100 100 100 100 100 100 100 100 100 100 100
5 39 39 46 76 5 5 1 4 4 0 5 5 5 5 5 5 5 14 100 100 91 23 77 100 100 100 100 100 100 100 100 100 100 100 100 100 100 100 100 100 100 100
78 99 73 100 44 5 5 5 5 0 4 5 38 5 5 5 5 87 100 100 100 5 62 100 100 100 100 100 100 100 100 100 100 100 100 100 100 100 100 100 100 100 100
100 100 97 100 100 5 5 5 0 5 5 5 5 5 11 84 79 100 100 100 14 5 63 100 100 100 100 100 100 100 100 100 100 98 100 100 100 100 100 100 100 100 100
100 100 100 100 100 5 5 4 5 5 5 5 5 5 5 24 99 60 58 5 5 5 36 100 100 100 100 100 100 100 100 100 100 100 100 100 100 100 100 100 100 100 100
100 100 100 100 95 5 5 5 5 5 5 4 5 2 2 5 5 67 18 5 5 5 20 100 100 100 100 100 100 100 100 100 100 100 100 100 100 100 100 100 100 100 100
100 100 100 90 22 5 5 5 5 5 9 59 13 5 5 5 5 14 79 22 5 10 67 100 100 100 100 100 100 100 100 100 100 100 100 100 100 100 100 100 100 100 100
100 100 98 87 25 5 5 5 5 36 100 98 9 5 5 5 5 5 7 5 9 18 63 100 100 100 100 100 100 100 100 100 100 100 100 100 100 100 100 100 100 100 100
100 100 100 66 22 5 38 100 98 81 94 100 58 50 95 78 37 5 16 39 96 35 79 100 100 100 100 100 100 100 100 100 100 100 100 100 100 100 100 100 100 100 100
100 100 100 84 73 100 100 100 100 100 81 100 52 29 94 100 98 99 100 97 44 100 100 100 100 100 100 100 100 100 100 100 100 100 100 100 100 100 100 100 100 100 100
100 100 100 100 100 100 100 100 100 100 98 100 99 84 93 53 91 99 100 100 100 100 100 100 100 100 100 100 100 100 100 100 100 100 100 100 100 100 100 100 100 100 100
100 100 100 100 100 100 99 74 100 100 88 96 83 100 90 72 89 100 100 100 100 100 100 100 100 99 92 100 100 100 100 100 100 100 100 100 100 100 100 100 100 100 100
100 100 100 100 100 95 56 67 100 100 92 85 21 99 100 94 92 100 100 100 100 100 100 100 72 100 100 100 100 100 100 100 100 100 100 100 100 100 100 100 100 100 100
100 100 100 100 100 96 91 100 100 100 77 88 72 90 100 92 95 100 100 100 100 100 100 100 99 100 90 100 100 100 100 100 100 100 100 100 100 100 100 100 100 100 100

GFSGL_prec_cloud_006.txt.gz
Cloud_Cover
0 0 0 0 0 0 0 0 0 0 0 0 0 2 0 0 0 0 0 0 0 0 4 5 5 5 19 17 74 99 100 100 100 100 100 42 16 21 100 99 100 100 100
0 0 0 0 0 0 0 0 0 0 0 0 1 5 0 0 0 0 0 0 0 0 2 5 5 5 99 23 82 99 100 100 100 100 100 100 97 100 100 83 100 100 100
0 0 0 0 0 0 0 0 0 0 0 0 4 3 0 0 0 0 0 0 0 0 5 5 5 5 48 71 100 100 100 100 100 100 91 91 94 98 100 99 100 100 100
0 0 0 0 0 0 0 0 0 0 0 0 5 0 0 0 0 0 0 0 5 5 5 5 5 9 44 100 100 100 100 100 100 100 100 93 66 100 100 99 100 100 100
0 0 0 0 0 0 0 0 0 0 0 5 1 0 0 0 0 0 2 5 5 5 5 5 5 5 10 100 100 100 100 100 100 99 100 99 100 91 71 90 100 100 100
0 0 0 0 0 0 0 0 0 0 0 0 0 0 0 0 0 0 5 5 5 94 16 37 81 5 93 100 100 100 100 100 100 100 100 100 100 100 100 87 100 100 100
0 0 0 0 0 2 3 0 5 4 0 0 0 0 0 0 0 5 8 5 55 18 13 36 5 5 92 40 100 100 100 100 100 100 100 100 96 100 100 100 100 100 100
0 0 0 0 1 5 4 5 2 3 0 0 0 0 0 0 0 2 5 5 5 0 1 3 5 13 51 83 100 100 100 100 100 100 100 100 100 100 100 100 99 100 100
0 0 0 3 5 5 5 5 5 5 2 0 0 0 0 0 0 0 5 5 4 5 6 5 5 80 97 100 100 100 100 100 100 100 100 100 100 100 100 100 100 100 100
4 4 3 5 5 5 5 5 5 5 0 0 3 2 0 0 0 0 5 5 5 5 5 20 5 63 100 100 100 100 100 100 100 100 100 100 100 100 100 100 100 100 100
5 5 4 5 5 5 5 4 5 1 4 5 5 0 0 0 4 5 5 87 100 85 100 100 39 100 100 100 100 100 100 100 100 100 100 100 100 100 100 100 100 100 100
13 5 5 5 5 5 5 5 4 0 5 8 5 1 0 1 5 5 5 56 48 100 100 100 5 11 100 100 100 100 100 100 100 100 100 100 100 100 100 100 100 100 100
73 14 5 5 38 40 16 34 5 7 35 47 5 0 0 5 5 5 5 10 97 100 100 30 82 74 100 100 100 100 100 100 100 100 100 100 95 100 100 100 100 100 100
21 28 57 89 73 98 95 73 72 55 98 57 4 0 5 5 1 5 9 100 100 99 17 5 15 98 100 100 100 100 100 100 100 100 100 100 100 100 100 100 100 100 100
85 100 100 100 100 100 100 100 61 66 71 5 1 5 5 5 2 9 35 98 73 13 6 5 18 95 97 100 100 100 100 100 100 100 100 99 100 100 100 100 100 100 100
100 100 100 100 100 100 100 100 40 79 6 5 5 5 5 5 5 5 42 57 5 5 5 5 35 49 61 100 100 100 100 100 100 100 100 100 100 100 100 100 100 100 100
100 100 100 100 100 100 100 100 94 5 5 5 5 0 4 5 7 7 6 53 5 5 5 5 73 86 100 100 100 100 100 100 100 100 100 100 100 100 100 100 100 100 100
100 100 100 100 100 100 89 100 54 5 5 5 4 5 5 4 2 0 5 5 5 5 4 5 70 100 100 100 100 100 100 100 100 100 100 100 100 100 100 100 100 100 100
100 100 100 100 100 100 100 98 39 29 10 53 30 62 5 5 3 4 5 5 5 5 5 6 88 94 100 100 100 100 100 100 100 100 100 100 100 100 100 100 100 100 100
100 100 100 100 100 100 100 94 59 38 100 68 98 92 7 9 5 5 5 5 5 5 5 71 71 100 100 100 100 100 100 100 100 100 100 100 100 100 100 100 100 100 100
100 100 100 100 100 100 100 100 100 100 100 100 97 30 44 56 33 19 5 11 94 66 92 100 100 100 100 100 100 100 100 100 100 100 100 100 100 100 100 100 100 100 100
100 100 100 100 100 100 100 100 88 100 100 100 82 83 95 100 100 59 5 5 90 100 100 100 96 100 100 100 100 100 100 100 100 100 100 100 100 100 100 100 100 100 100
100 100 100 100 100 100 100 100 100 100 100 96 41 92 100 80 38 5 13 57 100 100 100 98 76 100 100 100 100 100 100 100 100 100 100 100 100 100 100 100 100 100 100
100 100 100 100 100 100 97 68 100 100 100 90 5 69 100 100 64 5 21 84 95 100 100 100 63 100 100 100 100 100 100 100 100 100 100 100 100 100 100 100 100 100 100
100 100 100 100 100 100 100 100 100 100 100 94 12 41 92 89 54 5 96 91 98 100 100 99 100 100 100 100 100 100 100 100 100 100 100 100 100 100 100 100 100 100 100
100 100 100 100 100 100 100 100 100 100 100 97 78 84 80 5 5 13 85 84 100 100 100 96 100 100 100 100 100 100 100 100 100 100 100 100 100 100 100 100 100 100 100

GFSGL_prec_cloud_009.txt.gz
Cloud_Cover
0 0 0 0 0 0 0 0 0 0 0 0 0 0 0 0 0 0 0 0 0 0 0 0 0 1 5 5 5 5 10 100 100 100 100 99 100 100 85 6 100 100 100
0 0 0 0 0 0 0 0 0 0 0 0 0 0 0 0 0 0 0 0 0 0 0 0 1 1 4 5 5 5 5 100 100 100 100 100 100 95 100 15 79 100 100
0 0 0 0 0 0 0 0 0 0 0 0 0 0 0 0 0 0 0 0 0 0 0 5 5 5 6 5 5 5 67 100 100 100 100 100 100 100 100 100 100 100 100
0 0 0 0 0 0 0 0 0 0 0 0 0 0 0 0 0 0 0 0 0 0 5 5 5 48 52 11 5 43 100 100 100 100 100 100 89 89 100 100 100 100 100
0 0 0 0 0 0 0 0 0 0 0 0 0 0 0 0 0 0 0 0 5 5 5 5 8 29 82 55 14 43 100 97 100 100 100 100 97 100 100 100 100 100 100
0 0 0 0 0 0 0 0 0 0 0 0 0 2 5 1 0 0 0 5 8 5 6 5 4 0 0 0 3 51 100 100 100 100 100 100 100 100 100 97 100 100 100
0 0 0 0 0 0 0 0 0 0 0 0 4 5 0 0 0 0 5 5 5 5 4 0 0 5 5 5 0 62 100 100 100 100 100 100 100 100 100 100 100 64 100
0 0 0 0 0 0 0 0 0 0 0 5 5 0 0 0 0 0 2 3 0 0 0 2 2 5 5 28 7 93 100 100 100 100 100 100 96 100 100 100 100 100 100
0 0 0 0 0 0 5 5 0 0 5 5 2 0 0 5 0 0 0 4 5 5 5 5 5 10 13 89 100 100 100 100 100 100 100 100 93 100 91 100 100 100 100
0 0 0 1 1 5 5 5 5 5 5 5 5 5 5 5 0 0 1 5 5 48 100 78 100 100 42 100 97 100 100 100 100 100 100 69 99 100 84 58 100 100 100
1 2 5 5 5 5 5 5 5 16 82 5 5 45 5 0 0 0 5 5 5 5 90 92 100 41 7 100 100 100 100 100 100 100 100 100 76 67 98 96 100 100 100
3 5 5 11 14 46 59 70 64 91 22 32 50 6 5 4 0 2 0 5 5 15 100 100 36 5 15 76 100 100 100 100 100 100 100 100 100 100 100 90 100 100 100
83 43 97 100 99 100 100 92 81 86 6 90 90 5 5 5 0 0 0 5 5 96 100 6 5 5 6 100 80 100 100 100 100 100 100 100 100 100 100 100 100 100 100
100 95 100 100 100 100 100 96 100 76 100 100 80 5 5 5 5 0 0 5 5 8 17 5 0 5 5 93 96 100 100 100 100 100 100 100 100 100 100 100 100 100 100
100 100 100 100 100 100 100 100 100 100 100 100 37 77 40 5 2 4 5 5 22 5 5 2 0 12 64 100 95 100 100 100 100 100 100 100 100 100 100 100 100 100 100
100 100 100 100 100 100 100 100 100 90 20 98 99 25 45 11 8 5 3 14 7 12 5 5 0 5 5 100 91 100 100 100 100 100 100 100 100 100 100 100 100 100 100
100 100 100 100 100 100 100 100 100 98 98 100 84 9 12 5 5 0 3 9 1 3 5 5 1 5 5 97 92 100 100 100 100 100 100 100 100 100 100 100 100 100 100
100 100 100 100 100 100 96 100 100 100 100 68 24 99 7 5 5 5 2 4 0 1 5 4 5 5 5 71 100 100 100 100 100 100 100 100 100 100 100 100 100 100 100
100 100 100 100 100 100 100 100 100 100 100 100 71 11 42 5 5 5 5 5 5 4 5 5 5 5 26 100 100 100 100 100 100 100 100 100 100 100 100 100 100 100 100
100 100 100 100 100 100 100 100 100 100 100 99 100 99 11 5 5 5 5 5 5 5 20 76 5 5 91 100 100 100 100 100 100 100 100 100 100 100 100 100 100 100 100
100 100 100 100 100 100 100 100 100 100 100 100 80 99 63 70 89 100 5 5 5 32 100 100 100 45 98 100 100 100 100 100 100 100 100 100 100 100 100 100 100 100 100
100 100 100 100 100 100 100 100 100 100 100 100 98 83 98 100 100 81 5 5 5 35 97 100 100 70 81 100 100 100 100 100 100 100 100 100 100 100 100 100 100 100 100
100 100 100 100 100 100 100 100 100 100 100 100 90 8 57 97 89 7 5 5 5 5 21 96 86 6 85 100 100 100 100 100 100 100 100 100 100 100 100 100 100 100 100
100 100 100 100 100 100 100 100 100 99 100 83 100 35 56 62 96 45 5 5 5 25 82 11 10 5 97 100 99 100 100 100 100 100 100 100 100 100 100 100 100 100 100
100 100 100 100 100 100 100 100 95 77 62 88 96 77 59 9 76 29 5 5 36 46 7 7 44 7 56 100 100 100 100 100 100 100 100 100 100 100 100 100 100 100 100
100 100 100 100 100 100 94 99 100 96 97 100 98 92 100 100 37 5 5 26 96 76 6 72 77 96 86 100 100 100 100 100 100 100 100 100 100 100 100 100 100 100 100

GFSGL_prec_cloud_012.txt.gz
Cloud_Cover
0 0 0 0 0 0 0 0 0 0 0 0 0 0 0 0 0 0 0 0 0 0 0 0 0 0 0 0 2 4 5 22 75 0 4 5 72 100 99 100 84 71 0
0 0 0 0 0 0 0 0 0 0 0 0 0 0 0 0 0 0 0 0 0 0 0 0 0 0 5 5 5 5 5 5 36 55 5 100 100 100 100 100 52 56 54
0 0 0 0 0 0 0 0 0 0 0 0 0 0 0 0 0 0 0 0 0 0 0 0 4 5 5 5 5 5 6 61 15 86 100 98 100 100 100 100 77 54 33
5 0 0 0 0 0 0 0 0 0 0 0 0 0 0 0 0 0 0 0 0 0 2 5 5 5 5 5 5 5 5 5 47 77 77 100 100 100 100 100 99 83 94
5 2 5 5 0 0 0 0 0 0 0 0 0 0 0 0 0 0 0 0 0 5 5 5 5 5 5 5 6 11 71 12 42 97 100 100 100 100 97 94 96 100 60
5 22 5 5 5 0 0 0 0 0 0 0 0 0 0 0 0 4 0 0 5 5 5 5 3 0 0 3 14 21 89 100 100 100 100 100 100 100 100 100 88 36 94
10 62 19 8 5 0 0 0 0 0 0 0 0 0 0 0 2 1 0 2 5 2 0 2 0 3 5 5 5 20 96 88 100 100 100 100 100 100 100 100 23 59 100
47 12 39 38 24 5 0 2 4 0 0 5 5 2 0 0 4 2 4 5 1 0 0 1 5 5 10 18 95 100 86 100 100 100 100 100 100 100 100 97 100 100 100
100 98 78 99 16 5 5 5 5 1 5 5 5 5 5 5 5 5 5 4 0 0 0 5 13 82 100 100 100 100 100 100 100 100 100 100 100 100 100 100 94 82 90
100 100 100 58 5 5 9 5 5 5 5 5 15 14 5 5 5 5 5 5 5 5 0 4 32 99 91 100 100 100 66 100 100 100 100 100 100 100 100 100 100 91 100
100 100 76 100 14 5 5 70 24 25 5 14 80 68 5 22 5 5 75 33 16 66 5 5 27 5 13 34 75 14 94 100 97 100 100 100 100 100 100 100 100 100 90
100 100 100 100 50 5 5 99 18 6 58 53 98 94 18 53 5 5 73 7 29 5 5 7 18 5 5 4 3 32 100 100 99 100 100 100 100 100 100 100 100 100 100
100 100 100 100 99 85 89 69 5 40 99 63 100 100 76 12 5 18 12 5 4 10 5 5 5 0 0 0 0 58 100 100 100 100 100 99 100 100 100 100 100 100 100
100 35 24 84 100 100 100 98 100 100 100 100 100 100 86 44 14 43 32 30 2 5 5 5 5 2 0 0 0 16 95 100 100 100 100 100 100 100 100 100 100 100 100
27 38 56 58 98 100 100 100 100 100 100 100 100 100 100 34 72 9 94 5 17 21 11 20 3 0 0 5 5 5 100 100 100 100 100 100 100 100 100 100 100 100 100
100 61 32 7 88 100 100 100 100 100 100 100 100 100 95 83 100 71 64 8 12 4 5 5 3 0 1 5 13 95 100 100 100 100 100 100 100 100 100 100 100 100 100
81 85 73 100 100 100 100 100 100 100 100 100 100 100 86 100 100 100 56 2 6 3 4 5 5 0 5 5 24 100 100 100 100 100 100 100 100 100 100 100 100 100 100
100 100 100 100 100 100 100 100 100 100 100 100 100 85 98 100 100 66 9 5 0 0 0 5 5 5 5 5 49 97 97 81 100 100 100 100 100 100 100 100 100 100 100
100 100 100 100 100 100 100 100 100 100 100 100 99 96 100 92 93 5 5 5 5 4 5 5 5 5 5 5 98 83 94 84 100 100 100 100 100 100 100 100 100 100 100
100 100 100 100 100 100 100 100 100 100 100 89 80 98 68 100 96 5 5 5 5 5 5 5 5 14 6 25 100 53 95 66 100 100 100 100 100 100 100 100 100 100 100
100 100 100 100 100 100 100 100 100 100 99 84 100 76 100 100 76 55 56 5 5 5 5 5 7 100 86 17 44 30 84 86 100 100 100 100 100 100 100 100 100 100 100
100 100 100 100 100 100 100 100 100 99 84 99 100 100 100 100 77 100 41 5 5 5 5 5 5 85 87 32 57 53 70 100 100 100 100 100 100 100 100 100 100 100 100
100 100 100 100 89 86 99 96 100 100 100 100 100 100 100 55 55 79 5 5 5 5 5 5 25 26 5 5 37 98 92 100 100 100 100 100 100 100 100 100 99 100 100
100 94 100 100 100 100 100 100 100 100 100 100 100 98 43 88 8 34 39 5 5 5 14 20 15 5 5 5 100 100 100 100 100 100 100 100 100 100 100 100 100 100 100
100 100 100 100 100 100 100 100 100 100 100 100 100 88 85 35 67 54 5 5 10 58 6 5 30 6 5 51 100 94 100 100 100 100 100 100 100 100 100 100 100 100 100
100 100 100 100 100 100 100 100 100 100 96 100 100 83 97 100 100 70 8 7 12 80 100 13 16 60 6 71 100 100 100 100 100 100 100 100 100 100 100 100 100 100 100

GFSGL_prec_cloud_015.txt.gz
Cloud_Cover
0 0 0 0 0 0 0 0 0 0 0 0 0 0 0 0 0 0 0 0 0 0 0 0 0 0 0 0 2 5 5 5 18 1 3 4 4 3 33 14 99 100 90
0 0 0 0 0 0 0 0 0 0 0 0 0 0 0 0 0 0 0 0 0 0 0 0 0 0 0 4 5 5 5 5 5 5 4 5 5 4 74 90 100 100 100
0 0 0 0 0 0 0 0 0 0 0 0 0 0 0 0 0 0 0 0 0 0 0 0 0 2 5 5 5 5 5 5 15 23 59 15 24 16 84 100 100 100 100
0 0 0 0 0 0 0 0 0 0 0 0 0 0 0 0 0 0 0 0 0 0 0 0 0 1 5 5 5 5 19 6 35 50 65 10 72 100 100 100 100 100 100
4 2 0 0 0 5 0 0 0 0 0 0 0 0 0 0 0 0 0 0 0 0 0 0 0 0 5 5 5 5 24 40 77 82 98 28 100 100 100 100 100 58 90
52 93 3 1 4 3 0 2 0 0 0 0 0 0 0 0 0 0 0 0 0 0 2 4 2 5 0 3 6 72 90 100 100 98 63 100 100 100 100 100 99 61 96
100 100 68 58 0 0 4 5 5 1 0 0 0 0 2 3 5 0 0 0 3 5 0 0 5 5 5 5 5 43 95 100 100 34 100 100 100 100 100 100 100 98 41
100 100 99 100 19 1 0 5 5 92 18 5 5 5 5 5 5 5 5 5 5 5 5 5 5 2 5 6 100 100 100 100 67 99 100 100 100 100 100 100 100 72 40
100 100 100 100 70 5 5 5 5 5 78 99 31 93 6 5 5 5 5 9 9 5 5 5 5 1 5 41 100 100 39 4 100 100 100 100 100 100 100 100 100 55 96
100 100 100 100 99 18 5 22 5 5 19 100 96 43 5 5 5 5 16 53 32 5 5 5 1 5 5 40 91 14 9 6 100 100 100 100 100 100 100 68 100 100 100
100 100 100 100 100 66 78 68 31 23 98 12 5 7 5 5 5 5 12 19 97 35 5 4 0 4 5 5 18 6 28 100 100 100 100 100 100 100 56 99 100 100 100
100 100 100 100 98 93 100 100 86 57 26 100 22 5 16 5 16 100 17 99 100 12 5 4 5 5 5 2 2 0 40 100 100 100 100 100 100 100 100 100 100 100 66
100 100 99 100 100 100 100 100 100 100 100 87 54 64 10 17 94 53 100 100 82 5 5 5 5 5 0 0 0 3 5 99 100 100 100 100 100 100 92 100 100 100 100
100 100 100 100 100 100 100 100 100 100 100 98 100 84 65 94 65 97 100 99 36 5 4 5 5 4 0 0 0 4 24 100 100 100 100 100 100 100 100 92 100 88 100
100 100 100 100 100 100 100 100 100 98 100 99 100 100 100 76 79 100 100 8 41 5 5 10 4 5 0 0 0 13 71 100 100 100 100 100 100 100 97 100 100 88 100
100 100 100 100 100 100 100 100 100 100 59 98 100 100 100 91 100 100 64 92 56 10 22 24 18 5 0 0 5 6 75 100 100 100 100 100 100 100 100 100 92 100 100
100 100 100 100 100 100 100 100 96 100 98 100 100 100 100 100 100 99 78 100 14 10 17 5 5 0 0 5 5 5 100 99 100 100 100 100 100 100 100 100 100 100 100
100 100 100 100 100 100 99 98 63 94 100 100 100 100 100 100 100 100 99 13 11 18 5 37 3 5 5 5 5 12 100 68 92 100 100 100 100 100 100 100 100 100 100
100 100 100 100 100 100 87 100 100 100 100 100 100 100 99 89 97 94 88 26 15 91 65 12 4 5 5 5 5 44 100 68 99 100 100 100 100 100 100 100 100 100 100
100 100 100 100 100 100 100 100 100 100 100 100 95 88 82 99 90 97 30 49 85 100 100 74 4 5 22 40 99 100 76 73 100 100 100 100 100 100 100 100 100 100 100
100 100 100 100 100 100 100 100 100 100 100 100 98 100 99 52 62 94 71 65 100 100 99 2 0 5 30 100 58 24 34 55 100 100 100 100 100 100 100 100 100 100 100
100 100 100 100 100 100 100 100 100 99 97 92 94 97 79 100 99 93 92 100 81 6 5 0 1 5 5 50 14 6 33 54 99 100 100 100 100 100 100 100 100 100 100
100 100 100 100 100 100 100 100 100 98 84 51 38 38 100 100 100 100 100 91 55 10 5 22 60 20 5 22 5 13 42 62 91 100 100 100 100 100 100 100 100 98 100
100 100 100 100 100 100 100 93 85 75 90 87 88 100 100 100 100 100 80 13 5 5 5 0 15 18 5 5 5 5 7 81 90 100 100 100 100 100 100 100 100 100 100
100 100 100 100 100 100 100 99 98 100 100 100 100 100 100 100 100 100 100 38 8 5 14 15 30 8 5 6 8 5 5 99 100 100 100 100 100 100 100 100 100 100 100
100 100 100 100 100 98 100 100 100 100 100 100 100 100 100 100 100 100 42 9 9 5 48 88 64 55 91 97 81 60 23 96 100 100 100 100 100 100 100 100 100 100 100

GFSGL_prec_cloud_018.txt.gz
Cloud_Cover
0 0 0 0 0 0 0 0 0 0 0 0 0 0 0 0 0 0 0 0 0 0 0 0 0 0 0 0 1 5 5 5 41 5 5 5 5 6 5 7 5 44 88
0 0 0 0 0 0 0 0 0 0 0 0 0 0 0 0 0 0 0 0 0 0 0 0 0 0 0 0 5 5 5 8 26 4 6 5 35 16 25 55 99 100 100
0 0 0 0 0 0 0 0 0 0 0 0 0 0 0 0 0 0 0 0 0 0 0 0 0 0 0 3 5 5 5 12 30 40 16 40 23 94 44 42 98 100 100
29 58 41 5 0 0 0 0 0 0 0 0 0 0 0 0 0 0 0 0 0 0 0 0 4 0 5 5 5 8 7 6 20 85 11 6 8 5 13 34 99 100 100
100 100 100 100 50 0 0 0 0 0 0 0 0 0 0 0 0 0 0 0 0 0 0 1 0 5 3 2 5 5 7 25 62 21 6 5 8 5 30 100 100 100 100
100 100 100 100 100 59 5 0 0 1 1 0 0 0 0 0 0 0 0 0 0 0 0 0 1 5 4 6 8 14 20 41 96 87 57 5 6 100 100 100 100 100 100
100 100 100 100 100 100 100 10 0 4 5 0 0 0 0 0 0 0 0 2 5 5 0 0 1 2 5 5 5 9 20 12 79 100 71 98 100 100 100 100 100 100 100
100 100 100 100 100 100 76 5 5 5 3 0 0 0 0 0 0 3 5 7 5 3 0 0 5 5 5 6 38 52 60 11 16 46 100 100 100 100 100 100 100 100 100
6 100 100 100 100 100 39 75 90 40 6 0 0 0 0 0 0 5 5 36 11 5 4 5 5 5 10 11 38 95 5 5 10 18 64 97 100 100 100 100 100 100 100
95 100 100 100 100 58 96 100 100 100 100 78 9 5 5 5 5 5 6 5 5 5 5 5 9 5 31 18 65 12 5 5 5 80 60 72 100 100 100 90 71 87 100
100 100 100 100 100 78 73 100 100 100 100 100 80 79 69 6 5 5 5 5 5 5 5 19 21 33 16 7 11 5 5 6 12 99 100 99 100 100 100 100 100 100 100
99 100 100 100 96 100 66 100 100 91 100 100 100 100 13 11 5 8 12 37 5 5 18 30 49 86 5 22 3 1 0 12 97 100 100 100 100 100 100 100 100 100 100
99 41 80 100 100 100 100 100 98 65 100 100 100 94 54 86 38 41 57 8 5 5 29 35 99 85 5 9 4 0 2 53 100 100 100 100 100 100 100 100 100 100 100
100 100 100 100 100 100 100 100 97 94 100 100 100 100 98 94 69 75 50 99 7 34 53 94 100 100 9 1 4 5 5 64 100 100 100 100 100 100 100 100 100 100 100
100 100 100 100 100 100 100 100 100 100 100 100 100 100 100 99 65 97 100 77 29 15 98 100 100 99 41 6 5 5 7 67 100 100 100 100 100 99 100 100 100 100 100
100 100 100 100 100 79 49 87 100 100 100 100 100 100 100 100 100 99 100 79 6 87 100 100 100 91 35 6 5 5 9 24 100 92 100 100 100 100 100 100 100 100 100
99 77 100 100 100 95 100 99 100 100 100 100 100 100 100 100 100 100 100 77 71 100 95 98 100 79 90 6 8 19 18 75 100 95 100 100 100 100 100 100 100 100 100
100 100 100 100 100 100 100 100 100 100 100 100 100 100 100 100 100 100 98 50 100 100 95 45 99 100 99 5 12 37 39 92 100 75 100 100 100 100 100 100 100 100 100
100 100 100 100 100 100 100 100 100 100 100 100 100 100 100 98 100 100 99 100 100 94 32 35 94 95 83 10 68 98 82 67 70 85 100 100 100 100 100 100 100 100 100
100 100 100 100 100 100 100 100 100 100 100 100 100 100 100 100 100 100 80 72 81 27 24 58 100 100 53 23 48 53 67 95 85 86 100 100 100 100 100 100 100 100 100
100 100 100 100 100 100 100 100 100 100 100 100 100 100 100 100 100 92 100 100 90 45 37 100 100 100 12 5 5 61 62 49 77 75 99 100 100 100 100 100 100 100 100
100 100 100 100 100 100 100 100 100 100 100 100 100 100 100 100 100 100 100 99 98 69 92 100 100 100 22 24 20 36 81 43 70 99 91 100 100 100 100 100 100 100 100
100 100 100 100 100 100 100 100 100 100 100 100 100 100 100 100 100 99 100 100 100 99 100 100 100 73 79 38 26 45 20 14 95 88 99 100 100 100 100 100 100 100 100
100 100 100 100 100 100 100 100 100 100 100 89 100 96 57 63 100 100 100 99 100 100 100 100 23 24 39 38 31 29 15 87 98 64 100 100 100 100 100 100 100 100 100
100 100 100 100 100 100 100 100 100 100 83 97 70 100 100 100 100 100 100 100 100 100 82 100 100 98 49 59 22 69 84 64 100 100 100 100 100 100 100 100 100 100 100
100 100 100 100 100 100 100 100 100 100 92 90 100 100 100 100 100 100 100 100 100 98 96 93 95 95 99 96 95 93 100 87 100 100 100 100 100 100 100 100 100 100 100

GFSGL_prec_cloud_021.txt.gz
Cloud_Cover
94 2 0 0 0 0 0 0 0 0 0 0 0 0 0 0 0 0 0 0 0 0 0 0 0 0 0 0 0 0 0 3 5 5 5 1 0 5 5 5 5 12 5
100 100 92 5 0 0 0 0 0 0 0 0 0 0 0 0 0 0 0 0 0 0 0 0 0 0 0 0 0 0 5 5 5 5 4 3 2 3 5 5 5 68 28
100 100 100 100 7 0 0 0 0 0 0 0 0 0 0 0 0 0 0 0 0 0 0 0 0 0 0 0 0 3 5 5 5 5 5 5 5 5 5 5 5 0 5
100 100 100 100 80 16 1 0 0 0 0 0 0 0 0 0 0 0 0 0 0 0 0 0 0 0 0 0 3 5 5 5 5 5 4 5 5 5 5 14 78 92 95
96 100 100 100 100 100 39 1 0 0 0 0 0 0 0 0 0 0 0 0 0 0 0 0 0 0 0 0 1 0 5 5 5 5 7 6 5 5 23 96 100 100 100
100 100 100 100 100 100 100 9 2 0 0 0 0 0 0 0 0 0 0 0 0 0 0 0 0 0 1 3 5 8 8 5 6 93 100 92 5 5 40 100 100 100 100
100 100 100 100 100 100 100 41 100 42 5 3 1 0 0 0 0 0 0 0 0 0 0 0 0 0 0 2 5 5 7 17 61 99 70 99 20 8 99 100 100 100 100
100 100 100 100 100 100 100 100 91 100 99 51 29 5 5 2 0 0 0 0 0 0 3 0 0 0 5 5 5 5 22 4 5 12 24 5 16 97 100 100 100 100 100
100 100 100 100 100 100 100 100 39 100 100 88 99 18 36 5 3 0 0 0 0 2 5 5 0 3 5 5 6 29 37 3 5 27 3 15 100 100 100 100 100 100 100
100 97 100 100 100 100 100 100 100 100 100 100 100 100 30 7 11 4 5 5 2 2 5 5 5 5 5 4 5 87 5 5 5 2 5 91 94 100 100 100 100 100 100
100 98 100 100 100 100 100 100 100 100 100 100 99 90 84 94 100 73 7 5 5 5 5 5 5 5 5 5 40 8 6 5 3 5 56 100 98 100 100 100 100 100 100
100 82 100 100 100 100 100 100 100 100 100 100 89 97 99 100 100 94 40 58 45 28 8 15 10 12 5 6 53 5 5 2 20 5 100 99 100 100 100 100 100 100 100
85 36 100 100 100 100 100 100 100 100 100 89 83 100 100 100 100 100 100 100 100 100 83 24 40 40 5 10 52 5 2 30 8 94 99 100 100 100 100 100 100 100 100
99 40 100 100 100 100 100 95 100 100 62 49 25 100 100 100 100 100 100 100 100 100 100 18 58 5 10 77 16 4 5 19 23 82 83 100 100 100 100 100 100 100 100
95 87 52 100 100 100 100 100 100 100 93 100 72 100 100 100 100 100 100 100 100 100 78 53 22 42 98 85 5 5 5 25 7 98 99 99 100 100 100 100 100 100 100
100 63 63 99 100 100 100 100 100 100 100 100 100 87 92 100 100 100 100 100 100 100 94 65 20 9 100 93 5 5 5 27 6 100 100 100 100 100 100 100 100 100 100
100 100 100 100 100 100 100 100 100 100 100 88 22 39 100 100 100 100 100 100 100 100 68 32 95 100 65 16 8 5 1 25 96 100 77 100 100 100 100 100 100 100 100
100 100 100 100 100 100 100 97 100 100 100 100 100 100 100 100 100 100 100 100 100 100 28 82 92 100 87 5 14 7 5 7 100 100 84 100 100 100 100 100 100 100 100
100 100 100 100 100 100 100 100 100 100 100 100 100 100 100 100 100 100 100 100 100 95 42 60 96 100 21 6 12 25 5 24 98 100 56 100 100 100 100 100 100 100 100
100 100 100 100 100 100 100 100 100 77 100 100 100 100 100 100 100 100 100 100 100 100 89 92 100 100 48 26 8 11 6 97 93 100 36 100 100 100 100 100 100 100 100
100 100 100 100 100 100 100 99 100 100 100 100 100 100 100 100 100 100 100 100 100 100 100 100 100 100 39 68 92 5 6 23 68 100 30 100 100 100 100 100 100 100 100
100 100 100 100 100 100 100 100 100 100 100 100 100 100 100 100 100 100 100 100 100 100 100 100 99 98 100 100 76 9 5 75 54 86 16 61 100 100 100 100 100 100 100
100 100 100 100 100 100 100 100 100 100 100 100 100 100 100 100 100 100 97 100 100 100 100 100 100 100 100 100 100 89 9 13 47 98 100 34 100 100 100 100 100 100 100
100 100 100 100 100 100 100 100 100 100 100 100 100 100 100 100 98 100 100 100 100 100 100 100 100 100 100 100 90 34 85 5 59 58 96 97 99 100 100 100 100 100 100
100 100 100 100 100 100 100 100 100 100 100 100 100 100 100 100 100 100 100 100 100 100 100 100 100 100 100 93 68 24 5 5 43 100 100 100 99 100 100 100 100 100 100
100 100 100 100 100 100 100 100 100 100 100 100 100 100 100 100 100 100 100 100 100 100 100 100 88 66 100 97 52 5 5 22 49 100 100 100 100 100 100 100 100 100 100

GFSGL_prec_cloud_024.txt.gz
Cloud_Cover
0 0 14 5 100 98 53 0 2 3 0 70 30 0 0 0 0 0 0 0 0 0 0 0 0 0 0 0 0 0 0 0 0 0 0 0 1 0 0 0 0 0 3
5 1 0 97 100 100 100 85 32 98 14 100 100 24 0 0 0 0 0 0 0 0 0 0 0 0 0 0 0 0 0 0 0 5 5 0 3 0 4 0 0 5 4
5 2 1 5 100 100 100 100 95 77 100 100 100 56 0 0 0 0 0 0 0 0 0 0 0 0 0 0 0 0 0 0 0 2 3 4 5 4 0 3 1 0 5
5 91 32 5 42 100 100 100 100 100 100 100 100 70 0 0 0 0 0 0 0 0 0 0 0 0 0 0 0 0 0 0 0 2 4 2 4 3 3 2 2 2 5
69 100 81 19 7 100 100 100 100 100 100 100 100 93 0 0 0 0 0 0 0 0 0 0 0 0 0 0 0 0 0 0 0 3 5 5 58 9 5 5 18 5 12
6 100 100 51 100 100 100 100 100 100 100 100 100 91 2 0 0 0 0 0 0 0 0 0 0 0 0 0 0 0 0 0 5 5 32 100 31 5 11 64 19 28 72
20 100 89 99 100 100 100 100 100 100 100 100 100 85 4 0 0 0 1 0 0 0 0 0 0 0 0 0 0 0 0 5 5 13 59 5 24 50 6 18 76 100 100
14 100 99 100 100 100 100 100 100 100 100 100 100 100 15 4 5 5 5 0 0 0 0 0 0 4 0 0 0 0 0 0 0 4 19 9 11 3 29 100 100 100 100
41 100 100 100 100 100 100 100 100 100 100 100 100 100 99 75 88 26 5 5 5 0 0 0 2 5 0 0 5 5 0 2 4 2 1 0 2 34 100 100 100 100 100
28 100 100 100 100 100 100 100 100 100 100 100 100 100 100 100 100 73 77 5 5 0 5 5 1 5 5 24 9 5 5 5 3 0 1 0 32 93 100 100 100 100 100
5 100 98 100 100 100 100 100 100 100 100 100 100 100 100 100 100 100 82 82 8 17 9 31 5 5 5 83 5 5 5 5 1 5 5 2 47 100 94 100 100 100 100
5 38 34 100 100 100 98 100 100 100 100 100 100 100 77 100 100 98 99 70 100 100 81 22 97 99 100 8 5 5 5 5 5 26 2 8 70 93 61 88 100 100 100
66 95 17 100 100 72 90 100 100 100 100 100 100 77 56 100 100 100 100 100 100 92 89 100 100 100 100 10 5 6 5 5 5 32 8 33 15 100 100 99 100 100 100
5 9 5 100 99 100 100 100 100 100 100 100 100 89 50 100 100 100 100 100 100 100 100 84 100 100 100 81 5 5 5 5 10 29 30 44 50 100 100 100 100 100 100
10 6 91 100 88 100 100 100 100 100 100 100 100 100 98 100 100 100 100 100 100 100 100 100 100 100 100 68 66 7 4 5 5 5 30 13 95 100 100 100 100 100 100
7 100 100 100 46 100 100 100 100 100 100 100 100 100 100 100 100 100 100 100 100 100 100 100 100 100 100 96 71 5 5 2 13 5 79 44 100 100 100 100 100 100 100
99 100 100 38 90 100 100 100 100 100 100 100 100 66 100 100 100 100 100 100 100 100 100 100 100 100 100 94 6 5 2 0 5 83 100 48 100 100 100 100 100 100 100
100 100 100 42 100 100 100 100 100 100 100 100 100 100 100 100 100 100 100 100 100 100 100 100 100 100 96 19 8 5 0 5 80 100 99 66 100 100 100 100 100 100 100
100 100 100 100 100 100 100 100 100 100 100 100 100 100 100 100 100 100 100 100 100 100 100 100 100 89 25 62 11 5 5 15 75 99 99 48 100 100 100 100 100 100 100
100 100 100 100 100 100 100 100 100 100 100 100 100 100 100 100 100 100 100 100 100 100 100 100 100 79 100 7 5 5 5 7 33 58 100 16 100 100 100 100 100 100 100
100 100 100 100 100 100 100 100 100 100 100 100 100 100 100 100 100 100 100 100 100 100 100 100 77 100 100 100 36 5 9 5 20 8 30 7 100 100 100 100 100 100 100
100 100 100 100 100 100 100 100 100 100 100 100 100 100 100 100 100 100 100 100 100 100 100 99 100 100 100 100 93 7 5 5 5 5 43 100 100 100 100 100 100 100 100
100 100 100 100 100 100 100 100 100 100 100 100 100 100 100 100 100 100 100 100 100 100 100 100 100 100 100 100 100 98 6 5 5 5 62 97 100 100 100 100 100 100 100
100 100 100 100 100 100 100 100 100 100 100 100 100 100 100 100 100 100 100 100 100 100 100 100 100 100 100 79 77 38 60 68 14 5 6 100 100 100 100 100 100 100 100
100 100 100 100 100 100 100 100 100 100 100 100 100 100 100 100 100 100 100 100 100 100 100 100 100 86 100 100 80 100 29 5 5 5 35 89 100 100 100 100 100 100 100
100 100 100 100 100 100 100 100 100 100 100 100 100 100 100 100 100 100 100 100 98 97 92 100 91 89 100 100 100 87 99 5 70 92 89 100 100 100 100 100 100 100 100

GFSGL_prec_cloud_027.txt.gz
Cloud_Cover
0 0 0 0 0 0 0 0 0 1 30 38 5 94 100 97 27 0 0 0 0 0 0 0 0 0 0 0 0 0 0 0 0 0 0 0 0 0 0 0 0 0 0
0 4 0 0 0 0 0 0 0 72 57 100 89 100 100 100 98 9 0 0 0 0 0 0 0 0 0 0 0 0 0 0 0 0 0 0 0 0 0 0 0 0 0
0 0 0 0 0 3 0 0 0 7 5 5 99 100 100 100 100 98 6 3 0 0 0 0 0 0 0 0 0 0 0 0 0 0 0 0 0 0 0 0 0 0 0
0 0 0 0 0 15 4 2 30 6 22 32 100 100 100 88 100 100 36 1 0 0 0 0 0 0 0 0 0 0 0 0 0 0 0 0 0 0 0 2 0 0 0
0 0 0 0 0 2 1 20 95 99 94 100 100 100 100 100 100 100 7 0 0 0 0 0 0 0 0 0 0 0 0 0 0 0 0 0 0 0 2 1 3 3 3
0 0 0 3 0 2 71 100 99 100 100 100 100 100 100 100 100 100 4 0 0 0 0 0 0 0 0 0 0 0 0 0 0 0 0 4 4 0 5 5 16 35 5
0 0 1 4 0 3 100 99 32 100 100 100 100 100 100 100 100 100 7 1 0 0 0 0 0 0 0 0 0 0 0 0 0 0 1 0 5 5 5 4 11 60 56
0 0 0 1 1 71 98 94 100 100 100 100 100 100 100 100 100 100 100 29 0 0 0 0 0 0 0 0 1 2 0 0 0 0 0 2 1 0 1 68 98 100 100
1 0 5 5 4 6 100 100 100 100 100 100 100 100 100 100 100 100 100 98 0 0 0 0 0 0 0 4 5 0 0 0 0 1 4 2 0 0 36 100 100 100 100
5 5 4 0 5 47 100 100 100 100 100 100 100 100 100 100 100 100 100 100 9 4 5 5 0 4 5 2 5 5 2 4 0 5 0 0 0 13 100 100 100 100 100
6 5 5 4 28 94 100 100 100 100 100 100 100 100 100 100 100 100 100 100 98 52 100 6 14 69 5 5 5 5 4 3 5 3 2 1 0 24 100 100 100 100 100
82 5 5 9 12 68 100 100 100 100 100 100 100 100 100 100 100 100 100 100 100 100 47 5 45 8 5 5 5 5 5 9 4 5 0 0 0 5 39 100 100 100 100
5 5 5 3 12 35 100 100 100 100 100 100 100 100 100 100 100 100 100 100 100 100 98 17 67 86 7 5 5 5 6 4 5 1 2 1 2 5 100 100 100 100 100
5 5 5 5 5 99 100 100 100 100 100 100 100 100 100 100 100 100 100 100 100 100 100 98 95 68 5 5 5 5 5 5 4 0 0 3 5 100 100 100 100 100 100
31 23 94 34 34 100 100 100 100 100 100 100 100 100 100 100 100 100 100 100 100 100 13 98 100 66 5 6 41 5 5 5 4 0 4 8 60 100 100 100 100 100 100
84 75 89 9 100 100 100 100 100 100 100 100 100 100 100 100 100 100 95 45 6 78 100 100 100 60 10 99 12 51 6 5 2 2 84 34 71 100 100 100 100 100 100
100 100 75 100 100 100 100 100 100 100 100 100 100 100 100 100 100 100 83 100 100 100 100 100 100 50 73 99 97 60 5 5 5 8 95 25 99 100 100 100 100 100 100
100 88 100 100 100 100 100 100 100 100 100 100 100 100 100 100 100 100 100 100 100 100 100 97 91 54 93 98 100 64 26 5 8 40 84 6 100 100 100 100 100 100 100
100 100 100 100 100 100 100 100 100 100 100 100 100 100 100 100 100 100 100 100 100 100 100 99 78 100 100 100 99 13 11 13 16 5 97 6 24 100 100 100 100 100 100
100 100 100 100 100 100 100 100 100 100 100 100 100 100 100 100 100 100 100 100 100 100 100 69 100 100 100 100 99 50 5 5 5 5 6 6 67 100 100 100 100 100 100
100 100 100 100 100 100 100 100 100 100 100 100 100 100 100 100 100 100 100 100 100 100 71 100 100 100 100 100 100 19 5 5 5 5 5 5 35 100 100 100 100 100 100
100 100 100 100 100 100 100 100 100 100 100 100 100 100 100 100 100 100 100 100 100 83 100 100 100 100 100 95 100 99 35 7 5 5 5 5 43 100 100 100 100 100 100
100 100 100 100 100 100 100 100 100 100 100 100 100 100 100 100 100 100 100 100 100 100 100 100 100 100 100 92 100 87 5 5 11 5 5 5 28 100 100 100 100 100 100
100 100 100 100 100 100 100 100 100 100 100 100 100 100 100 100 100 100 100 93 100 100 100 100 99 100 100 100 100 59 85 100 32 5 5 2 6 100 100 100 100 100 100
100 100 100 100 100 100 100 100 100 100 100 100 100 100 100 100 100 100 100 100 100 100 100 100 100 100 100 100 100 100 88 7 5 22 68 10 92 100 100 100 100 100 100
100 100 100 100 100 100 100 100 100 100 100 100 100 100 100 100 92 100 100 100 100 100 100 100 100 100 100 100 100 100 21 36 100 100 84 99 100 100 100 100 100 100 100

GFSGL_prec_cloud_030.txt.gz
Cloud_Cover
0 0 0 0 0 0 0 0 0 0 0 0 0 14 7 2 64 99 100 100 100 2 0 0 0 0 0 0 4 7 4 0 0 0 0 0 0 0 0 0 0 0 0
0 0 0 0 0 0 0 0 0 0 0 0 0 1 77 5 79 100 96 100 100 14 0 0 0 0 0 0 0 0 0 0 0 0 0 0 0 0 0 0 0 0 0
0 0 0 0 0 0 0 0 0 0 0 0 5 1 0 83 83 92 100 100 100 55 0 0 0 0 0 0 0 0 0 0 0 0 0 0 0 0 0 0 0 0 0
0 0 0 0 0 0 0 0 0 0 0 3 5 4 0 0 77 100 99 100 100 28 60 0 0 0 0 0 0 0 0 0 0 0 0 0 0 0 0 0 0 0 0
0 0 0 0 0 0 0 0 0 0 5 6 17 5 2 4 10 98 87 100 100 98 90 0 0 0 0 0 0 0 0 0 0 0 0 0 0 0 0 0 0 0 0
0 0 4 5 5 5 0 0 3 4 24 55 90 5 5 92 8 100 35 92 91 100 95 0 0 0 0 0 0 0 0 0 0 0 0 0 0 0 0 2 0 0 0
4 0 0 5 16 0 0 5 4 2 21 93 79 4 58 61 66 100 100 100 100 100 95 30 0 0 0 0 0 0 0 0 0 0 0 0 0 0 0 0 0 0 6
8 5 0 0 5 5 4 0 0 5 82 95 9 17 23 100 100 100 100 100 100 100 100 95 4 0 0 0 0 0 0 0 5 2 0 0 0 0 0 0 2 37 62
94 97 5 1 5 5 5 0 5 46 100 80 22 98 100 100 100 100 100 100 100 100 100 98 5 0 0 0 0 0 0 4 5 4 1 0 0 0 0 3 18 94 100
100 100 76 5 36 72 5 2 5 91 100 33 100 100 100 100 100 100 100 100 100 100 78 21 70 1 0 0 0 0 3 5 5 5 0 0 0 0 0 5 70 100 100
98 100 76 5 78 69 5 5 26 100 99 100 100 100 100 100 100 100 100 100 100 100 98 94 86 6 28 2 0 0 5 5 5 5 5 0 0 0 0 21 100 100 100
98 98 55 12 5 5 4 3 100 100 100 100 100 100 100 100 100 100 100 100 100 100 97 100 93 99 8 5 5 5 5 23 28 5 0 0 0 0 4 76 100 100 100
92 8 5 5 5 5 4 74 100 100 100 100 100 100 100 100 100 100 100 100 100 100 100 100 100 100 7 5 5 5 5 6 5 3 0 0 0 2 61 99 99 100 100
53 46 5 5 6 5 18 100 100 100 100 100 100 100 100 100 100 100 100 100 100 100 100 100 100 100 100 5 5 5 5 5 5 4 0 0 0 30 100 100 100 100 100
65 32 64 13 15 22 23 88 100 100 100 100 100 100 100 100 100 100 100 100 100 100 100 100 100 100 91 7 5 5 5 5 5 2 5 2 3 89 100 100 100 100 100
100 98 99 100 100 83 45 94 100 100 100 100 100 100 100 100 100 100 100 100 100 100 100 100 100 100 86 77 5 5 5 5 4 5 5 4 29 98 100 100 100 100 100
100 100 98 90 89 60 92 100 100 100 100 100 100 100 100 100 100 100 100 100 100 100 100 100 100 100 95 68 5 5 5 5 5 83 15 10 50 100 100 100 100 100 100
96 92 100 84 86 91 100 100 100 100 100 100 100 100 100 100 100 100 100 100 100 100 100 100 100 91 5 13 13 7 5 5 5 21 18 15 57 100 100 100 100 100 100
100 100 100 100 100 100 100 100 100 100 100 100 100 100 100 100 100 100 100 100 100 100 100 100 100 12 79 99 40 5 14 5 5 5 5 5 67 100 100 100 100 100 100
100 100 100 100 100 100 100 100 100 100 100 100 100 100 100 100 100 100 100 100 100 100 100 100 88 100 100 100 96 30 26 5 5 5 5 5 70 100 100 100 100 100 100
100 100 100 100 100 100 100 100 100 100 100 100 100 100 100 100 100 100 100 100 100 100 96 100 100 100 60 100 100 64 23 5 5 5 5 5 16 100 100 100 100 100 100
100 100 100 100 100 100 100 100 100 100 100 100 100 100 100 100 100 100 100 100 100 100 99 100 100 85 100 100 100 50 6 5 5 5 5 5 5 67 100 100 100 100 100
100 100 100 100 100 100 100 100 100 100 100 100 100 100 100 100 100 100 100 100 100 100 100 100 100 100 96 97 80 43 7 7 13 5 5 1 37 100 100 100 100 100 100
100 100 100 100 100 100 100 100 100 100 100 100 100 100 100 100 100 100 100 100 100 100 100 100 100 97 98 100 84 65 88 71 6 5 7 6 28 100 100 100 100 100 100
100 100 100 100 100 100 100 100 100 100 100 100 100 100 100 100 100 100 100 100 100 99 100 100 100 100 99 98 100 77 96 40 21 6 6 7 90 100 100 100 100 100 100
100 100 100 100 100 100 100 100 100 100 100 100 100 100 100 100 99 100 100 100 100 100 100 100 100 100 100 95 38 86 100 100 98 56 5 60 100 100 100 100 100 100 100

GFSGL_prec_cloud_033.txt.gz
Cloud_Cover
0 0 0 0 0 0 0 0 0 0 0 0 0 0 0 0 0 0 0 0 14 100 100 35 96 85 0 0 0 0 0 1 26 100 100 10 88 5 4 0 0 0 0
0 0 0 0 0 0 0 0 0 0 0 0 0 0 0 0 0 0 4 5 6 67 100 100 79 99 0 0 0 0 0 0 0 63 43 5 5 5 0 0 0 0 0
0 0 0 0 0 0 0 0 0 0 0 0 0 0 0 0 1 0 0 4 85 18 98 100 31 100 11 0 0 0 0 0 0 4 5 0 0 0 0 0 0 0 0
0 0 0 0 0 0 0 0 0 0 0 0 0 0 5 5 5 0 0 0 33 37 89 68 79 64 51 18 0 0 0 0 0 0 0 0 0 0 0 0 0 0 0
0 5 5 5 0 0 0 1 0 0 0 3 22 3 3 5 5 0 1 0 2 5 100 100 100 99 99 82 0 0 0 0 0 0 0 0 0 0 0 0 0 0 0
56 5 5 4 5 33 48 6 0 4 5 2 0 0 0 0 0 5 41 34 4 13 6 43 100 100 100 90 6 0 0 0 0 0 0 0 0 0 0 0 0 0 0
5 5 5 34 68 100 100 50 5 1 2 0 0 4 0 0 5 22 100 73 1 53 99 100 100 100 100 91 19 0 0 0 0 0 0 0 0 4 0 0 0 0 0
11 76 91 96 100 100 100 70 5 4 5 3 2 5 0 5 5 86 100 94 15 100 100 100 100 100 100 92 21 0 0 0 0 0 0 0 2 5 5 5 4 0 17
5 22 14 93 96 100 46 98 5 5 5 5 0 0 0 4 5 98 100 93 100 100 100 100 100 100 100 98 57 0 0 0 0 0 0 5 5 5 5 16 8 29 11
87 82 98 32 65 99 68 60 11 5 5 5 0 3 22 96 100 96 100 100 100 100 100 79 100 100 100 90 37 1 0 0 0 0 5 5 5 5 3 0 0 3 49
99 98 100 100 93 100 91 99 90 5 5 1 9 100 100 94 100 100 100 100 100 100 100 100 100 100 100 98 13 0 0 0 0 5 5 5 5 4 0 0 1 91 100
100 98 100 99 92 88 65 5 9 5 3 5 100 100 100 100 100 100 100 100 100 100 100 100 100 100 100 25 5 3 4 5 4 5 5 5 5 0 0 5 97 100 100
100 100 100 93 89 42 87 56 5 5 5 83 100 100 100 100 100 100 100 100 100 100 100 100 100 100 64 49 79 54 42 5 5 5 5 5 0 0 4 100 100 100 100
100 100 100 100 76 73 7 5 5 6 24 100 100 100 100 100 100 100 100 100 100 100 100 100 100 7 24 98 93 66 5 5 5 5 5 1 0 7 100 100 100 100 100
100 99 83 96 94 74 92 100 79 27 64 100 100 100 100 100 100 100 100 100 99 100 100 100 7 12 100 98 94 50 13 5 5 5 3 1 1 100 100 100 100 100 100
100 100 100 96 100 100 100 100 69 99 100 100 100 100 100 100 100 100 100 100 100 100 100 47 13 93 100 100 100 100 8 5 5 5 2 0 86 100 100 100 100 100 97
100 99 99 100 97 93 100 89 100 100 100 100 100 100 100 100 100 100 100 100 100 100 95 100 100 100 100 100 100 94 5 5 5 5 4 37 100 100 100 100 100 100 100
100 100 100 100 100 100 100 100 100 100 100 100 100 100 100 100 100 100 100 100 100 100 100 100 100 100 100 100 100 40 48 5 5 6 11 84 100 100 100 100 100 100 100
100 100 100 100 100 100 100 100 100 100 100 100 100 100 100 100 100 100 100 100 100 100 100 100 100 100 100 100 100 77 44 6 14 5 39 100 100 100 100 100 100 100 100
100 100 100 100 100 100 100 100 100 100 100 100 100 100 100 100 100 100 100 100 100 100 100 100 100 100 100 100 100 94 22 35 3 8 66 100 100 100 100 100 100 100 100
100 100 100 100 100 100 100 100 100 100 100 100 100 100 100 100 100 100 100 100 100 100 100 100 100 100 100 100 100 100 100 29 5 5 24 100 100 100 100 100 100 100 100
100 100 100 100 100 100 100 100 100 100 100 100 100 100 100 100 100 100 100 100 100 100 100 100 100 100 100 100 100 100 97 5 5 4 1 49 100 100 100 100 100 100 100
100 100 100 100 100 100 100 100 100 100 100 100 100 100 100 100 100 100 100 100 100 100 100 100 100 100 100 100 100 100 67 12 10 5 3 5 75 100 100 100 100 100 100
100 100 100 100 100 100 100 100 100 100 100 100 100 100 100 100 100 100 100 100 100 100 100 100 100 100 100 100 100 99 26 8 13 13 5 5 88 100 100 100 100 100 100
100 100 100 100 100 100 100 100 100 100 100 100 100 100 100 100 100 100 100 100 100 100 100 100 100 100 100 87 100 94 77 5 5 6 12 39 100 100 100 100 100 100 100
100 100 100 100 100 100 100 100 100 100 100 100 100 100 100 100 100 100 100 100 100 100 100 100 98 99 100 100 100 100 53 18 81 22 10 6 91 97 100 100 100 100 100

GFSGL_prec_cloud_036.txt.gz
Cloud_Cover
0 0 0 0 0 0 0 0 0 0 0 0 0 0 0 0 0 0 0 0 0 0 0 5 5 100 100 98 100 100 13 0 0 0 0 0 0 8 75 100 100 99 92
0 4 1 0 0 0 0 0 0 0 0 0 0 0 0 0 0 0 0 0 0 0 0 3 1 5 100 100 100 100 80 0 0 0 0 0 0 0 6 90 100 100 97
5 5 0 0 0 1 19 6 2 0 0 0 0 0 0 0 0 2 3 0 0 0 0 4 5 17 39 98 7 100 100 18 0 0 0 0 0 0 0 5 30 68 72
3 1 2 5 5 42 98 84 41 4 0 0 0 0 0 2 0 0 9 5 2 0 0 0 2 34 6 100 100 68 83 73 0 0 0 0 0 0 0 0 3 15 14
5 5 5 5 5 6 91 78 88 7 5 0 12 67 18 4 1 0 0 0 0 0 0 0 0 3 5 100 100 81 84 100 4 0 0 0 0 0 0 0 0 1 5
5 5 5 5 5 5 67 80 13 5 62 69 87 100 94 5 0 1 5 0 0 2 8 1 0 57 4 78 100 100 100 100 14 0 0 0 0 0 0 0 0 0 0
5 5 5 5 5 5 21 72 100 91 98 100 100 100 26 3 0 2 5 5 41 100 100 100 6 51 84 92 100 100 100 96 5 0 0 0 0 0 0 0 0 0 0
38 9 10 62 38 7 62 100 100 100 100 100 100 64 5 5 2 2 5 50 100 95 100 100 36 93 100 92 100 100 76 92 3 0 0 0 0 0 0 0 0 4 4
89 64 71 99 99 65 62 88 96 73 82 100 54 8 5 0 0 5 5 100 100 100 93 51 26 100 100 100 100 100 24 100 6 0 0 0 0 0 0 4 94 90 31
100 100 95 99 100 100 80 94 100 99 83 64 12 5 2 0 0 5 35 100 92 78 100 37 20 100 96 100 100 100 69 100 29 0 0 0 0 0 0 3 5 0 0
100 100 100 100 100 100 87 80 89 99 80 5 5 5 0 3 22 54 100 100 99 100 100 100 100 81 100 100 100 63 100 96 23 1 0 0 0 1 5 5 4 0 6
100 100 100 100 100 100 100 44 7 5 5 5 5 4 74 67 100 100 100 100 100 100 100 100 100 100 100 100 100 99 96 90 4 1 0 0 4 5 5 5 4 86 100
100 100 100 94 100 99 95 75 89 69 8 5 24 100 100 100 100 100 100 100 100 100 100 100 100 100 100 100 100 98 100 89 2 0 0 5 5 5 5 68 100 100 100
100 100 100 100 100 100 92 84 76 8 11 87 100 100 100 100 100 100 100 100 100 100 100 100 100 100 100 98 100 100 100 41 0 3 5 5 5 7 100 100 100 100 100
100 100 100 100 96 100 99 100 100 100 98 100 100 100 100 100 100 100 100 100 100 100 100 100 100 100 100 100 100 95 2 1 24 5 5 5 15 100 100 100 100 100 100
100 100 100 100 97 96 92 80 97 100 100 100 100 100 100 100 100 100 100 100 100 100 100 100 100 100 100 100 73 6 40 62 80 83 54 32 100 100 100 100 100 96 99
100 100 100 100 100 100 100 100 100 100 100 100 100 100 100 100 100 100 100 100 100 100 100 100 100 100 100 70 99 100 72 97 100 100 11 100 100 100 100 100 100 40 100
100 100 100 100 100 100 100 100 100 100 100 100 100 100 100 100 100 100 100 100 100 100 100 100 100 100 81 100 100 96 100 100 100 78 88 100 100 100 100 100 100 100 93
100 100 100 100 100 100 100 100 100 100 100 100 100 100 100 100 100 100 100 100 100 100 100 100 100 100 100 100 100 100 100 100 91 50 100 100 100 100 100 100 100 97 99
100 100 100 100 100 100 100 100 100 100 100 100 100 100 100 100 100 100 100 100 100 100 100 100 100 100 100 100 100 100 100 100 13 100 100 100 100 100 100 100 100 100 100
100 100 100 100 100 100 100 100 100 100 100 100 100 100 100 100 100 100 100 100 100 100 100 100 100 100 100 100 100 100 100 74 38 100 100 100 100 100 100 100 100 100 100
100 100 100 100 100 100 100 100 100 100 100 100 100 100 100 100 100 100 100 100 100 100 100 100 100 100 100 100 100 100 100 92 6 94 100 100 100 100 100 100 100 100 100
100 100 100 100 100 100 100 100 100 100 100 100 100 100 100 100 100 100 100 100 100 100 100 100 100 100 100 100 100 100 100 61 19 5 81 100 100 100 100 100 100 100 100
100 100 100 100 100 100 100 100 100 100 100 100 100 100 100 100 100 100 100 100 100 100 100 100 100 100 100 100 100 100 100 67 18 16 8 46 100 100 100 100 100 100 100
100 100 100 100 100 100 100 100 100 100 100 100 100 100 100 100 100 100 100 100 100 100 100 100 100 100 100 100 100 100 100 59 5 5 44 70 100 100 100 100 100 100 100
100 100 100 100 100 100 100 100 100 100 100 100 100 100 100 100 100 100 100 100 100 100 100 100 100 100 100 100 100 100 100 59 11 99 100 100 100 100 100 100 100 100 100

GFSGL_prec_cloud_042.txt.gz
Cloud_Cover
0 0 0 0 0 3 5 5 5 5 5 5 5 5 5 5 5 5 0 4 5 5 5 0 2 5 5 5 10 22 5 19 42 97 81 53 0 0 0 0 6 83 100
0 0 0 5 5 5 5 5 58 67 73 99 76 5 36 94 100 65 5 5 5 5 5 3 0 3 5 5 7 40 27 8 5 76 100 88 4 0 0 0 0 5 86
0 1 4 5 6 10 15 63 74 81 93 100 99 99 95 100 100 100 99 5 5 5 5 5 3 3 5 5 5 24 77 92 6 6 98 100 22 3 4 0 0 0 5
5 5 5 35 81 88 83 78 89 89 93 89 100 100 100 100 100 100 98 100 76 5 5 5 5 5 4 5 5 5 60 73 99 25 24 96 100 29 74 46 2 0 0
5 5 57 77 93 90 100 100 100 100 100 100 100 100 100 100 97 100 100 100 100 85 53 5 5 5 5 1 2 2 13 86 100 98 9 99 100 100 54 46 14 0 0
7 49 50 8 72 80 87 100 100 88 100 88 99 100 100 100 100 86 100 100 100 100 64 20 5 5 5 5 5 7 6 33 100 100 58 66 100 100 87 26 91 0 0
75 100 100 100 99 95 100 100 100 100 100 100 100 100 100 100 100 96 100 100 95 100 98 98 59 5 8 5 5 34 83 99 90 38 68 59 100 64 100 100 97 6 0
100 100 100 100 79 100 100 100 100 100 100 100 100 100 100 100 100 93 100 100 100 100 100 94 46 11 10 5 93 100 95 24 74 100 31 46 100 100 100 100 98 90 54
100 100 100 100 100 100 100 100 100 100 100 90 98 100 100 100 100 95 93 90 98 89 100 100 99 7 16 16 100 100 100 100 100 18 100 90 100 100 100 100 100 86 12
100 100 100 100 100 100 100 100 100 97 100 92 100 100 100 100 100 100 100 100 52 67 82 22 5 14 28 88 100 100 100 87 100 92 80 100 100 100 100 100 100 68 77
100 100 100 100 100 100 100 100 100 97 91 87 97 98 100 99 74 100 95 85 68 71 26 10 12 16 86 100 99 100 15 92 52 100 99 100 100 97 100 88 70 46 91
100 100 100 100 100 100 100 100 81 100 100 100 98 84 99 100 100 94 83 41 17 16 11 9 15 16 57 100 100 98 100 97 99 100 100 100 100 100 100 100 82 100 95
100 100 100 100 100 100 100 100 100 100 100 100 100 100 100 100 100 75 55 72 96 100 71 56 89 88 50 100 84 95 100 96 100 100 100 100 100 100 100 100 100 100 88
100 100 100 100 100 100 100 100 100 100 100 100 100 100 100 100 100 100 100 100 100 100 100 100 86 93 38 63 41 94 94 100 100 100 100 100 100 98 84 95 100 100 92
100 100 100 100 100 100 100 100 100 100 100 100 100 100 100 100 100 100 100 100 100 100 100 100 100 100 100 100 100 100 100 100 100 100 100 100 92 99 100 100 98 100 100
100 100 100 100 100 100 100 100 100 100 100 100 100 100 100 100 100 100 100 100 100 100 100 100 100 100 100 100 100 100 100 100 100 100 100 98 99 100 96 100 99 100 100
100 100 100 100 100 100 100 100 100 100 100 100 100 100 100 100 100 100 100 100 100 100 100 100 100 100 100 100 100 100 100 100 100 100 100 100 100 100 100 100 100 100 76
100 100 100 100 100 100 100 100 97 100 100 100 100 100 100 100 100 100 100 100 100 100 100 100 100 100 100 100 100 100 100 100 100 100 100 100 100 100 100 100 100 35 94
100 100 100 100 100 100 100 100 100 100 100 100 100 100 100 100 100 100 100 100 100 100 100 100 100 100 100 100 100 100 100 100 89 96 100 100 100 100 100 100 98 100 73
100 100 100 100 100 100 100 100 100 100 100 100 100 100 100 100 100 100 100 100 100 100 100 100 100 100 100 100 100 100 100 100 100 100 100 100 100 100 100 75 100 58 87
100 100 100 100 100 100 100 100 100 100 100 100 100 100 100 100 100 100 100 100 100 100 100 100 100 100 100 100 100 100 100 100 100 100 100 100 100 100 99 100 86 100 100
100 100 100 100 100 100 100 100 100 100 100 100 100 100 100 100 100 100 100 100 100 100 100 100 100 100 100 100 100 100 100 100 100 100 100 100 100 100 100 100 100 100 100
100 100 100 100 100 100 100 100 100 100 100 100 100 100 100 100 100 100 100 100 100 100 100 100 100 100 100 100 100 100 100 100 100 100 100 100 100 100 100 100 100 100 100
100 100 100 100 100 100 100 100 100 100 100 100 100 100 100 100 100 100 100 100 100 100 100 100 100 100 100 100 100 100 100 100 100 100 100 100 100 100 100 100 100 100 100
100 100 100 100 100 100 100 100 100 100 100 100 100 100 100 100 100 100 100 100 100 100 100 100 100 100 100 100 100 100 100 100 100 100 100 100 100 100 100 100 100 100 100
100 100 100 100 100 100 100 100 100 100 100 100 100 100 100 100 100 100 100 100 100 100 100 100 100 100 100 100 100 100 100 100 100 100 100 100 100 100 100 100 100 100 100

GFSGL_prec_cloud_045.txt.gz
Cloud_Cover
0 0 0 0 0 0 2 3 5 5 5 5 34 13 45 50 96 9 86 100 100 7 41 55 11 16 71 5 68 100 99 3 3 100 100 100 100 100 100 99 54 5 3
0 0 0 0 2 5 5 5 5 5 5 57 97 99 100 100 99 28 98 79 100 100 7 90 100 14 34 99 18 15 100 28 4 42 100 100 100 100 100 100 50 6 5
0 0 4 5 5 9 40 72 88 92 30 62 62 42 35 94 91 100 95 100 93 58 100 100 100 94 83 100 100 31 11 72 99 53 78 100 100 81 100 77 100 16 5
0 5 5 6 71 70 59 41 89 100 99 100 83 92 74 98 100 100 78 87 100 100 100 97 56 72 100 90 100 92 76 94 45 90 95 60 100 5 68 86 92 39 5
5 5 6 67 7 73 98 100 100 100 100 100 100 90 74 97 98 100 100 100 100 100 98 59 98 100 100 100 100 89 71 84 100 72 8 98 30 43 12 99 18 94 85
5 24 68 12 100 100 100 100 100 100 100 95 100 98 100 100 100 100 100 100 100 67 100 57 100 100 100 69 45 5 5 5 68 100 100 82 57 6 54 86 72 98 75
68 20 5 91 100 100 100 100 100 100 100 100 100 100 100 100 100 100 100 100 100 92 99 100 100 100 100 100 54 5 5 5 5 21 98 30 100 44 14 67 100 100 100
22 87 90 97 100 100 100 100 100 100 100 100 100 100 100 100 100 100 100 100 100 100 100 100 93 100 100 100 63 16 5 9 9 24 6 86 11 8 80 100 17 100 100
58 94 100 100 100 100 100 100 100 100 100 100 100 68 94 66 98 100 100 100 100 100 100 100 100 100 100 69 7 5 5 5 2 97 98 4 5 4 98 100 100 96 63
100 100 100 100 100 100 100 100 100 100 100 100 100 93 73 95 100 95 100 100 100 100 100 100 100 100 100 5 5 5 5 5 68 25 92 3 40 79 95 100 100 100 100
100 100 100 100 100 100 100 100 100 100 100 98 100 94 88 87 73 92 99 100 98 100 99 100 95 100 100 68 28 35 79 82 36 100 78 85 52 100 62 100 100 100 100
100 100 100 100 100 100 100 100 100 100 100 100 63 86 93 96 85 42 44 82 100 95 100 100 83 51 100 100 92 92 100 100 100 100 99 22 74 100 100 100 100 100 98
100 100 100 100 100 100 100 100 100 100 100 100 100 100 100 100 100 100 92 99 100 100 32 12 68 100 98 93 83 95 100 91 80 81 98 100 100 71 97 100 100 100 100
100 93 100 100 100 100 100 100 100 100 100 100 100 100 100 100 100 100 100 100 100 100 100 100 100 53 16 55 54 94 100 96 100 98 89 100 91 100 100 100 100 100 100
100 100 100 100 100 100 100 100 100 100 100 100 100 100 100 100 100 100 100 100 100 100 100 100 100 83 100 47 5 31 55 93 47 68 90 100 100 100 100 100 100 100 100
100 100 100 100 100 100 100 100 100 100 100 100 100 100 100 100 100 100 100 100 100 100 100 100 100 100 100 100 72 52 60 58 89 100 100 100 100 100 100 100 100 100 93
100 100 100 100 100 100 100 100 100 100 100 100 100 100 100 100 100 100 100 100 100 100 100 100 100 100 100 100 100 100 100 100 100 100 100 100 100 100 100 100 100 100 100
100 100 100 100 100 100 100 100 100 100 100 100 100 100 100 100 100 100 100 100 100 100 100 100 100 100 100 100 100 100 100 100 100 100 100 100 100 100 100 100 100 100 100
100 100 100 100 100 100 100 100 100 100 100 100 100 100 100 100 100 100 100 100 100 100 100 100 100 100 100 100 100 100 100 100 100 100 100 100 100 100 100 100 100 100 100
100 100 100 100 100 100 100 100 100 100 100 100 100 100 100 100 100 100 100 100 100 100 100 100 100 100 100 100 100 100 100 100 99 100 100 100 100 100 100 100 100 100 100
100 100 100 100 100 100 100 100 100 100 100 100 100 100 100 100 100 100 100 100 100 100 100 100 100 100 100 100 100 100 100 100 100 100 100 100 100 100 100 100 100 100 100
100 100 100 100 100 100 100 100 100 100 100 100 100 100 100 100 100 100 100 100 100 100 100 100 100 100 100 100 100 100 100 100 100 100 100 100 100 100 100 100 100 100 100
100 100 100 100 100 100 100 100 100 100 100 100 100 100 100 100 100 100 100 100 100 100 100 100 100 100 100 100 100 100 100 100 100 100 100 100 100 100 100 100 95 100 100
100 100 100 100 100 100 100 100 100 100 100 100 100 100 100 100 100 100 100 100 100 100 100 100 100 100 100 100 100 100 100 100 100 100 100 100 100 100 100 100 100 100 100
100 100 100 100 100 100 100 100 100 100 100 100 100 100 100 100 100 100 100 100 100 100 100 100 100 100 100 100 100 100 100 100 100 100 100 100 100 100 100 100 100 100 100
100 100 100 100 100 100 100 100 100 100 100 100 100 100 100 100 100 100 100 100 100 100 100 100 100 100 100 100 100 100 100 100 100 100 100 100 100 100 100 100 100 100 100

GFSGL_prec_cloud_051.txt.gz
Cloud_Cover
0 0 0 0 0 0 0 0 0 0 4 5 5 5 5 5 5 5 5 3 3 89 99 97 45 7 4 5 38 5 4 91 51 0 0 0 0 92 100 100 39 100 100
0 0 0 0 0 0 0 0 0 0 3 5 0 0 5 5 5 5 5 5 5 5 34 87 100 99 5 6 16 0 5 92 93 56 38 5 5 2 9 81 100 100 100
0 0 0 0 0 0 0 0 5 0 1 5 5 5 5 5 5 5 5 5 22 17 87 97 88 100 100 100 100 9 17 88 100 100 3 41 50 5 1 20 86 100 100
0 0 0 0 0 0 4 1 3 5 44 100 13 60 19 32 33 10 57 78 100 70 66 92 100 100 100 100 91 85 5 73 100 99 17 4 41 94 10 0 48 100 99
0 0 0 0 0 0 3 5 54 52 100 100 94 18 73 80 27 94 96 93 99 84 82 92 100 100 100 100 100 100 95 22 67 35 96 5 5 59 67 7 8 100 100
0 0 0 0 0 2 5 98 69 51 100 100 87 100 100 100 100 96 100 100 100 100 100 100 100 100 100 100 100 100 100 100 100 54 52 75 6 95 88 56 5 100 100
1 0 0 4 5 5 14 90 100 100 100 100 100 100 100 100 82 100 100 100 100 87 93 100 100 100 100 100 100 100 100 100 100 99 68 68 100 63 53 13 15 100 100
5 0 5 5 5 66 99 100 100 100 100 100 100 100 100 100 100 100 100 100 83 100 100 97 100 100 100 100 100 100 100 100 100 100 100 100 100 93 5 5 13 98 100
4 5 5 5 94 100 100 100 100 100 100 100 100 100 100 100 100 100 96 98 97 35 82 94 91 100 100 100 100 100 100 100 100 100 100 100 18 30 96 5 3 0 6
0 5 6 98 100 100 100 100 100 100 100 100 100 100 100 100 100 100 97 98 97 48 11 38 88 100 100 100 100 100 100 100 100 100 99 80 8 61 5 4 0 0 8
0 5 11 100 100 100 100 100 100 100 100 100 100 100 100 100 100 100 100 100 97 80 11 5 73 98 100 89 92 100 100 100 100 58 42 46 80 77 94 32 0 4 5
5 5 78 100 100 100 100 100 100 100 100 100 100 100 100 100 100 100 100 100 87 100 63 5 5 25 100 93 100 100 100 100 98 78 45 6 5 6 10 53 79 24 5
5 72 100 99 100 100 100 100 100 100 100 100 100 100 100 100 100 100 100 100 100 100 99 82 5 89 92 100 99 100 83 83 100 100 84 6 5 5 5 10 6 10 86
27 88 100 100 100 100 100 100 100 100 100 100 100 100 100 100 100 100 100 100 100 99 100 91 53 35 11 90 25 13 42 100 98 94 69 5 15 12 20 35 68 69 70
60 100 96 100 100 100 100 100 100 100 100 100 100 100 100 100 100 100 100 100 100 100 100 94 76 100 62 5 95 76 100 93 12 7 6 6 5 12 41 74 72 94 100
100 88 100 100 100 100 100 100 100 100 100 100 100 100 100 100 100 89 40 99 100 74 69 88 60 99 42 10 89 31 38 5 39 73 62 90 67 69 100 100 100 100 98
100 100 100 100 100 100 100 100 100 100 100 100 100 100 100 100 100 100 100 60 36 14 5 22 19 71 84 45 36 7 9 63 6 13 25 68 90 96 96 100 74 42 87
100 97 100 100 100 100 100 100 100 100 100 100 100 100 100 100 100 100 100 100 100 100 100 100 100 100 89 43 87 95 48 5 5 10 65 82 56 14 43 74 100 100 100
100 100 100 100 100 100 100 100 100 100 100 100 100 100 100 100 100 100 100 100 100 100 100 100 100 100 100 100 100 100 100 92 69 30 9 42 54 46 40 100 100 100 100
100 100 100 100 100 100 100 100 100 100 100 100 100 100 100 100 100 100 100 100 100 100 100 100 100 100 100 100 100 100 100 100 100 95 95 91 95 100 100 100 100 100 84
100 100 100 100 100 100 100 100 100 100 100 100 100 100 100 100 100 100 100 100 100 100 100 100 100 100 100 100 100 100 100 100 100 100 100 100 100 100 100 100 100 100 100
100 100 100 100 100 100 100 100 100 100 100 100 100 100 100 100 100 100 100 100 100 100 100 100 100 100 100 100 100 100 100 100 100 100 100 100 100 100 99 100 100 100 100
94 100 100 100 100 100 100 100 100 100 100 100 100 100 100 100 100 100 100 100 100 100 100 100 100 100 100 100 100 100 100 100 100 100 100 100 100 100 100 100 100 100 100
100 100 100 100 100 100 100 100 100 100 100 100 100 100 100 100 100 100 100 100 99 100 100 100 100 100 100 100 100 100 100 100 100 100 100 100 100 100 100 100 100 100 100
100 100 100 100 100 100 100 100 100 100 100 100 100 100 100 100 100 98 96 100 100 100 100 100 100 100 100 100 100 100 100 100 100 100 100 100 100 100 100 100 100 100 100
100 100 100 100 100 100 100 100 100 100 100 100 100 100 100 100 100 99 100 100 100 97 100 100 100 100 100 100 100 100 100 100 100 100 100 100 100 100 100 100 100 100 100